Wind_Speed
30 35 39 43 46 49 52 52 51 52 54 56 57 57 55 54 53 47 41 40 42 40 37 34 31 30 30 26 22 21 21 20 20 20 20 18 17 17 16 15 14 14 15 16 16 16 15 14 13 14 15 17 19 21 23 25 27 28 29 30 32 36 40 44 46 47 45 41 37 36 37 36 35 34 33 33 32 32 31 32 33 33 32 31 32 34 35
28 31 36 42 46 49 52 54 53 53 55 57 57 55 53 53 51 46 41 39 38 33 29 26 26 28 29 26 24 24 23 22 21 21 20 18 18 17 16 16 17 16 17 18 18 19 19 17 15 15 17 18 20 22 24 26 27 29 31 33 36 40 44 47 47 46 44 41 38 37 37 38 39 38 36 35 35 33 32 32 33 32 32 31 32 35 36
30 30 33 40 46 49 52 55 55 54 54 55 55 54 52 49 47 44 42 41 37 31 27 26 26 28 28 27 28 27 24 22 22 22 20 20 20 18 18 19 19 19 19 19 19 20 21 21 18 18 19 21 22 24 24 25 26 28 31 34 38 42 44 44 43 44 45 44 40 39 40 41 43 42 39 37 36 33 31 32 32 31 31 31 33 36 37
34 33 32 37 44 49 53 57 57 55 53 52 51 51 50 48 47 45 45 43 37 31 29 29 27 27 28 28 30 29 27 25 25 24 22 22 21 19 20 22 22 21 21 20 21 22 24 24 23 22 22 24 25 25 23 22 23 26 30 35 39 41 43 43 42 44 45 43 41 43 42 41 42 42 40 38 35 32 31 32 32 31 31 32 35 37 37
39 36 34 35 38 46 55 59 57 55 54 51 48 47 47 47 47 47 46 41 34 30 31 31 29 28 28 28 29 30 30 30 30 29 27 25 22 21 23 25 25 24 23 22 23 25 27 28 27 26 26 27 27 26 24 23 25 30 35 39 41 42 44 44 44 45 44 42 42 42 40 39 40 41 40 38 34 32 31 32 31 30 31 35 37 37 37
41 37 35 35 38 46 54 57 57 56 55 52 48 46 45 45 45 45 43 38 34 34 35 33 31 30 29 28 29 30 30 31 31 30 29 27 25 25 27 28 28 27 26 25 26 28 31 32 32 30 29 29 29 28 27 29 32 36 40 41 41 43 44 43 44 45 42 40 40 40 41 43 42 41 42 42 42 39 36 33 30 30 34 37 38 38 38
42 38 37 39 41 44 50 55 57 57 54 50 47 45 44 43 44 43 40 37 36 36 35 34 33 32 30 29 29 31 32 30 28 29 29 28 28 29 30 30 30 29 28 29 31 33 35 35 35 35 34 33 32 31 32 34 37 39 40 41 42 44 43 41 43 45 41 39 40 42 44 46 47 48 48 46 45 40 34 30 31 34 37 39 40 40 39
41 39 38 40 40 40 46 53 56 56 53 48 45 44 43 43 43 41 37 36 36 35 34 35 35 34 33 31 30 32 33 31 31 31 30 28 28 28 30 31 32 31 31 33 35 36 37 38 38 39 39 39 38 37 37 38 39 40 42 42 43 45 44 42 42 43 43 43 45 47 47 47 48 48 45 39 33 29 28 30 33 36 39 40 41 41 39
39 40 38 38 37 36 43 51 55 54 51 47 44 41 40 41 41 39 37 36 35 34 34 35 35 35 35 33 32 33 34 35 36 35 32 30 29 30 31 33 33 34 35 35 36 37 38 38 40 41 41 41 42 42 41 41 42 44 45 45 46 46 46 44 42 43 45 44 46 48 48 46 45 42 39 36 32 31 34 35 35 36 39 42 42 41 40
38 40 39 38 36 35 39 46 53 54 50 46 44 41 38 39 39 38 37 36 36 36 36 35 34 35 37 35 33 34 36 37 38 36 34 32 31 32 33 33 33 34 35 36 38 38 38 39 41 41 41 41 43 44 45 45 47 48 48 48 49 48 48 47 45 44 44 43 43 44 42 43 44 41 38 37 37 36 36 35 34 36 39 41 43 42 42
39 40 39 38 36 34 34 39 47 51 49 47 45 42 38 38 38 38 37 36 37 39 38 36 36 37 38 36 34 34 34 35 35 35 35 33 32 32 32 32 34 36 36 37 38 39 40 41 41 41 41 43 45 47 48 50 50 51 52 52 51 51 49 49 48 46 44 42 41 39 38 42 44 41 37 35 34 33 32 31 32 35 36 38 41 42 42
39 39 40 38 36 34 32 35 40 44 46 48 48 45 40 38 38 40 41 40 41 41 41 43 43 40 38 37 36 35 34 32 32 32 32 32 32 32 34 36 39 40 39 38 38 39 41 42 42 43 44 45 47 49 50 52 52 53 54 54 54 53 51 49 48 46 44 42 40 38 38 40 41 40 37 32 29 27 27 28 29 30 32 36 39 40 39
38 38 39 39 36 33 32 32 34 38 43 48 49 46 42 40 39 40 40 41 42 43 45 46 44 40 37 37 36 35 33 30 28 29 30 31 33 36 39 42 44 44 43 42 42 43 44 43 44 45 46 47 49 51 52 53 54 54 54 55 54 52 50 48 47 45 43 42 40 39 38 39 41 42 37 30 26 26 27 28 29 30 33 37 39 38 37
35 33 35 37 36 33 32 31 32 37 41 45 45 41 38 39 41 41 39 39 40 42 44 45 43 41 41 39 37 36 34 32 30 31 32 34 36 38 41 43 45 46 47 47 46 46 46 46 47 49 50 50 52 53 53 53 53 53 53 53 51 49 47 46 45 44 44 42 41 41 39 38 38 38 35 30 28 29 31 31 33 35 39 41 40 37 34
33 29 30 34 34 34 34 32 34 37 39 40 40 38 35 35 38 41 41 39 38 37 38 39 38 39 41 40 39 39 40 41 40 39 38 39 39 40 42 45 47 49 49 48 47 47 48 50 51 53 53 54 55 54 54 53 52 52 51 49 47 46 45 44 44 44 44 42 41 40 38 35 36 39 39 36 33 34 35 36 38 41 44 43 40 36 34
36 29 29 31 32 34 36 35 36 38 38 38 39 39 38 37 36 37 37 37 35 32 30 30 30 32 35 36 38 38 39 42 44 43 42 44 45 47 49 51 52 51 50 49 50 50 51 53 54 55 56 56 56 56 55 53 51 48 45 43 43 43 42 43 43 43 43 42 41 39 36 34 34 36 37 36 35 37 40 41 43 45 44 40 37 36 35
39 34 33 34 35 36 38 39 39 39 38 38 38 39 39 38 34 30 29 29 29 28 28 28 29 31 33 35 36 36 37 38 40 41 43 45 47 49 51 51 51 51 51 51 51 52 54 56 57 57 57 56 57 57 55 50 46 43 41 41 41 41 41 42 42 42 42 42 40 37 35 32 30 32 34 36 38 41 44 45 46 45 40 35 33 34 35
42 39 37 39 39 38 40 43 45 45 42 39 37 37 36 35 32 29 27 27 27 27 27 28 28 29 30 30 32 33 33 35 36 38 40 42 45 46 48 50 51 52 52 53 55 58 60 59 57 57 58 60 58 54 49 44 41 40 40 40 40 41 42 42 42 42 42 41 39 36 34 32 32 35 37 39 41 44 45 47 48 44 37 33 33 35 40
43 41 39 41 44 43 43 43 43 43 43 39 36 35 35 35 35 34 32 31 30 29 29 30 29 30 30 30 31 32 33 34 35 38 42 45 47 49 52 54 55 56 56 57 60 63 63 60 58 58 58 54 48 43 41 40 40 40 40 41 41 42 42 42 42 41 40 39 38 37 36 36 36 37 41 43 44 44 46 49 48 42 36 35 38 43 48
43 41 38 39 44 47 48 44 39 37 37 35 34 35 36 36 37 38 36 34 33 33 34 33 32 31 31 31 32 33 35 37 40 43 46 48 50 52 55 56 57 58 59 59 60 61 59 54 50 46 43 39 38 38 39 40 40 41 41 41 41 41 41 41 41 40 40 39 39 39 40 39 38 39 42 45 45 46 48 48 44 39 39 42 47 50 51
43 43 40 36 38 42 46 46 42 39 36 34 34 36 38 39 40 39 38 37 36 36 36 35 34 33 32 33 34 35 37 40 42 44 44 45 47 49 51 54 55 58 59 59 57 54 48 43 38 36 35 37 38 39 39 39 39 39 39 39 40 41 41 42 42 41 40 40 42 43 43 41 40 41 44 46 46 46 45 42 41 43 46 49 50 49 47
39 41 41 39 37 38 42 44 43 40 39 37 37 38 40 41 42 43 43 42 39 36 35 36 37 37 36 36 37 37 38 40 41 41 42 44 45 45 45 46 49 53 56 54 48 42 38 37 36 36 37 38 38 38 37 37 37 38 38 39 40 41 42 43 43 42 42 44 45 45 42 40 39 41 43 42 41 40 41 43 46 48 49 48 46 45 44
34 37 39 42 43 42 42 44 44 41 39 39 39 39 41 42 43 45 46 45 42 40 40 40 41 40 39 40 41 41 41 42 41 39 39 39 39 40 40 38 36 38 40 37 33 32 33 34 35 35 36 36 36 37 37 37 37 38 39 39 40 41 43 44 44 42 41 42 41 38 36 36 37 38 38 39 39 42 46 50 50 48 47 46 44 41 39
30 36 41 45 46 46 46 48 48 45 41 40 41 42 42 41 42 44 45 46 47 46 45 43 42 41 39 39 39 39 39 39 38 36 35 34 34 36 36 34 32 31 31 30 30 31 33 33 33 34 35 35 36 37 38 38 38 38 39 40 41 42 43 42 38 36 35 36 35 33 34 36 39 41 43 45 47 49 50 50 49 47 46 43 38 35 35
30 36 41 42 42 43 46 49 51 50 48 45 45 46 45 43 42 43 43 45 46 45 42 40 39 39 37 35 35 35 35 35 36 36 35 34 34 34 34 33 33 32 32 31 32 33 33 34 34 35 36 37 38 38 39 39 38 39 40 40 40 41 42 40 38 38 39 40 39 39 41 44 46 48 48 48 47 47 48 47 46 44 41 36 33 35 39
31 35 38 38 36 36 39 43 47 49 50 48 48 48 49 48 46 45 44 41 38 36 35 33 33 34 33 33 33 35 35 36 37 38 38 37 36 35 33 32 31 31 31 32 33 33 34 35 36 37 38 38 39 39 39 39 39 40 41 42 43 44 45 46 46 46 45 44 44 46 47 48 48 48 46 45 44 45 45 44 42 40 38 36 38 42 46
33 31 32 34 33 32 32 35 37 41 45 48 46 44 44 43 42 41 40 38 34 32 31 30 29 30 31 32 34 36 37 38 40 41 41 39 37 35 33 32 31 31 31 33 34 35 36 37 37 38 38 39 39 40 41 41 42 43 45 46 46 47 47 48 47 47 46 46 47 48 48 48 47 45 44 43 43 43 43 42 41 41 41 43 45 49 50
35 33 30 29 29 28 29 30 29 29 31 32 31 29 29 30 29 29 29 30 30 30 30 30 31 31 32 33 35 36 36 37 37 38 37 36 35 34 33 32 31 31 32 33 34 36 37 38 39 39 40 41 42 43 44 45 46 47 47 47 47 46 46 46 46 45 45 46 47 48 49 48 47 45 42 41 42 43 42 42 43 44 46 47 49 51 51
30 31 30 28 27 27 27 27 27 26 26 26 24 22 21 21 22 22 24 25 26 28 29 30 31 32 33 34 34 34 34 34 33 32 32 32 32 32 32 32 33 34 35 35 36 37 39 40 41 43 44 45 46 47 47 48 48 48 48 47 47 46 46 45 45 45 45 47 48 49 48 46 44 43 41 41 42 44 44 45 46 48 49 49 50 50 50
25 27 27 27 27 26 24 23 23 24 24 25 25 23 22 21 21 22 23 24 25 26 27 28 29 30 30 31 31 31 31 31 31 31 31 32 33 34 34 35 36 37 38 39 40 41 42 42 44 45 46 47 48 48 48 47 48 48 49 48 47 46 45 44 44 45 47 48 47 44 43 42 42 42 41 41 42 44 46 46 47 48 48 49 49 49 49
21 24 24 23 23 22 23 23 23 22 22 22 22 22 22 22 23 23 23 24 24 25 25 26 27 28 28 29 29 30 31 32 32 33 34 35 36 37 38 39 40 41 41 42 43 43 43 44 45 46 46 46 46 47 46 47 47 46 46 46 46 46 45 45 46 47 48 48 46 44 44 45 44 43 42 41 41 42 44 45 46 47 47 48 48 48 48
16 17 17 17 18 18 19 21 21 21 21 21 21 21 22 23 23 23 23 24 24 25 25 26 27 28 29 30 31 32 32 33 34 36 37 38 39 39 40 41 42 42 43 44 45 45 45 45 45 44 44 44 46 45 44 44 45 46 46 46 47 48 48 48 48 47 47 46 46 46 46 45 43 42 41 41 41 42 43 44 45 46 46 46 45 45 45
16 15 14 15 16 17 18 19 20 20 21 21 22 22 23 23 24 24 25 25 26 26 27 28 29 30 31 32 33 34 35 36 37 38 39 40 40 41 41 42 43 43 44 45 46 46 46 46 46 45 44 45 46 45 43 44 47 48 48 48 48 48 49 49 48 46 45 44 44 44 43 42 41 42 42 42 43 43 44 44 44 43 43 43 43 42 40
18 18 17 16 17 18 20 20 21 21 22 22 23 23 24 24 25 25 26 27 28 29 30 31 32 33 34 35 36 37 37 38 39 40 40 41 42 42 42 43 43 43 44 45 45 46 46 46 46 46 46 46 46 45 45 47 48 48 47 47 47 47 47 46 45 43 43 43 43 43 43 42 43 43 43 44 44 43 42 42 41 41 40 39 38 35 33
20 20 19 19 20 21 21 22 22 23 23 23 23 24 24 25 26 28 29 30 30 31 32 33 35 35 36 37 37 38 39 39 40 41 42 42 42 42 43 43 42 42 43 43 44 45 45 45 45 45 45 45 45 46 47 47 47 46 45 46 46 46 45 43 42 42 43 43 43 43 43 43 44 44 43 42 42 41 41 40 39 38 36 34 32 31 31
22 22 22 22 22 23 23 23 24 24 25 25 26 27 27 28 29 30 31 32 32 33 34 35 35 36 37 37 38 39 39 40 41 41 42 42 42 42 42 42 43 43 43 44 44 45 45 45 45 45 45 45 45 45 45 44 43 41 40 40 41 42 41 41 42 43 42 42 41 42 42 43 43 41 40 40 40 40 39 38 35 33 31 30 31 31 31
24 24 24 24 24 24 25 26 26 27 27 28 29 29 30 30 31 31 32 32 33 33 34 35 35 36 36 37 37 38 38 39 39 40 40 41 41 42 42 43 44 44 45 45 46 45 45 45 44 43 42 41 40 38 37 36 37 37 36 36 36 38 40 41 42 42 42 41 42 42 42 41 40 38 38 38 38 37 35 32 30 29 30 31 32 32 32
25 25 25 25 25 26 26 27 28 28 29 30 30 31 31 31 32 32 32 33 33 33 34 34 35 35 35 36 36 36 37 37 38 39 40 41 42 43 43 44 44 45 45 45 46 45 45 44 42 39 36 36 35 33 32 33 34 35 35 35 36 38 40 42 41 41 40 41 40 40 38 37 36 36 36 35 33 32 30 29 29 30 31 32 32 31 31
25 26 26 26 27 27 28 29 29 30 30 31 31 31 32 32 32 32 32 32 32 32 33 33 33 34 34 35 36 37 37 38 38 39 40 40 41 41 42 42 42 42 43 43 43 43 43 43 40 37 34 35 36 35 34 32 30 31 32 34 37 39 41 41 40 39 37 36 35 34 34 33 33 33 32 30 29 28 28 29 30 31 31 31 31 31 31
26 26 27 27 28 28 29 29 30 30 30 31 31 31 31 31 31 31 31 31 31 31 32 32 33 34 35 35 36 37 37 38 38 38 37 37 37 36 36 37 38 39 39 40 41 41 41 40 40 38 36 37 39 40 37 32 29 30 33 36 38 39 39 38 37 36 34 33 32 32 31 30 30 29 28 28 28 28 29 30 30 30 30 31 31 31 31
27 27 27 28 28 28 28 28 28 28 29 29 29 29 29 29 29 29 30 30 31 31 32 33 33 34 35 35 35 34 34 34 34 34 33 33 33 33 33 34 35 35 36 36 37 37 37 37 37 37 37 36 39 41 41 39 37 37 37 38 37 36 34 33 32 31 31 31 30 29 28 27 27 27 27 27 28 28 29 29 29 29 30 30 29 29 28
27 27 27 27 26 26 26 26 26 26 26 27 27 27 28 28 29 29 30 30 31 32 33 33 33 33 33 32 31 30 30 29 29 30 30 30 30 30 31 31 31 31 31 31 30 31 31 31 32 33 35 35 37 39 39 39 38 37 37 36 35 33 32 32 32 31 31 30 28 27 27 26 26 27 27 28 28 28 28 28 28 29 28 27 25 25 25
25 24 24 23 23 23 23 24 24 25 25 26 26 27 27 28 29 29 30 31 31 31 31 31 30 30 29 28 27 27 26 26 27 27 27 28 28 28 27 27 27 26 27 26 26 26 26 25 25 26 27 28 30 32 32 32 32 31 31 31 31 30 30 30 29 28 27 26 25 25 25 26 26 27 27 27 27 28 28 27 26 25 23 22 22 23 24
22 21 21 21 22 22 23 23 24 25 25 26 27 27 28 28 29 29 29 29 29 28 27 26 26 25 25 25 25 26 26 26 26 26 26 26 26 26 25 25 24 25 24 24 24 24 24 24 23 23 23 24 24 25 26 26 26 26 25 25 24 24 23 23 22 22 22 22 23 24 25 26 26 27 27 27 27 27 26 24 22 21 20 21 21 22 23
19 20 20 21 21 22 22 23 24 24 25 26 26 27 27 27 27 27 26 25 25 24 23 23 23 24 24 25 25 25 25 25 25 25 25 25 25 25 25 24 24 23 23 23 22 22 22 21 21 21 22 22 23 23 23 23 22 22 22 22 21 21 21 21 21 21 22 22 24 25 26 26 26 27 27 27 26 25 22 20 20 21 21 22 22 23 23
18 18 19 20 20 21 21 22 23 23 24 25 25 25 25 24 24 23 23 22 22 22 22 22 22 22 23 23 23 22 22 23 23 24 25 25 25 24 24 23 22 21 21 21 21 20 20 19 19 18 19 19 20 20 21 21 21 21 21 21 21 22 22 22 22 22 23 24 25 26 26 26 26 27 26 25 23 21 19 19 21 22 22 22 22 23 24
17 18 18 19 20 20 21 21 22 22 22 23 22 22 22 21 21 20 20 20 20 20 20 20 20 20 20 20 21 21 21 22 23 23 24 24 24 23 23 22 21 21 21 21 21 21 21 20 20 19 19 20 20 21 21 21 21 21 22 22 22 23 23 23 24 24 25 25 25 25 25 24 24 23 23 21 19 19 19 20 22 22 22 22 22 23 23
17 18 19 19 20 20 20 21 21 21 20 20 20 20 19 19 19 19 19 19 19 19 19 19 19 19 19 20 20 21 22 23 23 24 23 23 23 22 22 22 22 22 22 21 21 21 21 21 21 21 22 22 22 22 22 22 22 22 22 22 22 22 22 22 22 23 23 23 22 22 21 21 21 20 19 19 19 20 21 22 23 23 23 23 23 23 23
17 18 19 20 20 20 20 20 19 19 18 18 17 17 18 18 18 19 19 18 18 18 18 19 19 19 20 20 21 22 22 23 23 23 23 23 22 22 22 22 22 22 22 22 22 22 22 22 21 21 21 21 21 21 21 21 21 21 20 20 20 21 21 21 22 22 22 22 21 21 20 21 20 20 20 21 22 22 23 23 24 25 25 25 25 25 25
18 18 19 19 19 19 18 17 17 17 16 16 15 16 16 17 18 18 19 19 19 18 18 19 19 19 20 21 21 22 22 23 23 23 22 22 21 21 21 21 22 22 21 21 21 21 21 21 20 20 20 21 21 21 20 20 20 20 20 20 21 21 22 22 23 23 23 23 22 22 22 22 22 23 23 24 25 25 25 25 25 26 27 28 28 28 27
18 18 18 18 18 18 17 16 16 16 16 16 16 16 16 17 18 19 20 20 20 19 19 19 19 20 20 21 22 22 22 22 22 22 21 20 20 20 20 20 20 20 20 20 20 20 20 20 20 20 20 20 21 21 21 21 21 22 22 22 22 23 23 24 25 25 25 25 24 24 24 25 26 26 27 27 28 28 28 28 28 28 29 30 31 31 30
17 17 17 17 17 17 17 17 16 17 17 18 18 18 18 18 19 19 20 20 20 20 20 20 20 21 21 21 21 21 21 21 21 20 20 20 19 20 20 20 21 21 21 21 21 21 21 22 22 22 22 23 23 23 24 24 24 25 25 25 26 26 27 27 28 28 29 29 28 28 28 28 28 29 30 30 31 31 31 31 31 31 31 32 32 33 33
Wind_Direction
214 214 215 217 217 217 217 217 216 214 216 220 225 228 230 231 234 237 238 239 241 243 245 245 245 248 251 251 253 252 249 251 258 260 256 251 251 256 260 267 275 282 289 293 294 295 290 282 278 277 282 292 295 295 295 292 290 291 291 295 299 300 299 294 288 284 279 275 272 269 272 275 272 274 280 282 283 287 288 288 289 290 293 296 298 298 299
207 210 212 213 216 217 217 216 214 213 215 220 224 228 229 230 233 236 237 238 238 236 236 239 242 246 247 246 247 249 252 256 260 262 262 261 265 269 270 270 274 280 287 289 290 292 291 285 280 277 283 292 296 299 298 294 292 290 291 297 299 298 296 291 287 285 283 283 281 275 274 274 271 274 279 278 280 283 283 285 288 291 294 295 296 296 297
208 206 209 211 213 217 217 216 214 214 217 220 224 226 227 227 229 232 236 239 235 227 227 236 241 243 242 241 244 250 256 258 257 260 267 274 277 275 271 269 273 279 285 285 284 288 291 290 288 286 289 296 303 306 304 298 295 295 297 301 299 299 302 301 297 293 289 288 285 277 271 271 273 277 278 277 280 281 279 282 287 292 294 292 292 293 295
214 204 209 212 211 215 217 215 214 215 218 221 223 225 226 227 230 233 237 239 232 223 225 235 242 246 246 243 243 249 254 256 258 263 272 280 279 273 269 270 273 277 280 280 281 285 288 291 292 291 292 299 305 307 304 301 301 303 305 304 302 305 309 308 305 301 294 287 283 278 273 274 277 277 276 278 279 278 277 281 285 289 289 288 289 291 293
216 205 209 214 213 217 217 213 212 215 218 221 224 227 227 228 232 235 237 236 231 226 230 238 246 252 255 250 246 247 252 256 259 264 272 276 273 267 267 270 273 277 278 278 281 285 287 289 291 290 291 298 303 302 299 298 300 302 305 306 307 310 310 308 308 306 299 290 285 283 280 280 280 278 275 276 275 275 279 282 282 284 285 286 288 289 291
218 208 210 217 222 222 217 211 211 215 217 221 225 227 227 228 232 234 234 232 228 227 232 239 246 251 255 255 251 249 252 257 261 264 266 266 265 265 267 269 273 278 280 279 280 284 287 290 293 292 291 294 297 297 296 296 297 300 304 307 310 311 310 308 308 307 303 296 291 288 283 283 284 281 278 278 276 276 280 283 282 284 286 286 287 287 289
221 211 212 222 228 223 215 212 213 215 217 220 224 226 227 229 231 231 230 229 228 229 233 239 244 248 252 253 249 248 251 255 259 261 261 261 264 268 269 271 275 278 277 277 280 284 286 290 294 295 292 291 294 295 296 297 299 302 306 310 313 312 310 307 304 304 305 302 298 295 291 288 285 280 281 284 280 276 278 282 284 287 288 288 288 288 289
223 215 215 225 229 221 215 214 214 213 214 216 220 223 225 227 227 227 227 228 231 232 234 239 242 245 248 248 245 245 248 251 255 259 260 261 263 264 265 268 271 273 273 275 279 282 284 287 291 293 292 292 294 295 296 299 302 305 308 312 314 312 308 305 303 303 304 304 302 301 297 291 284 279 280 281 276 277 287 290 289 290 291 290 290 289 290
224 219 219 227 230 225 220 216 212 211 212 215 219 221 223 225 225 225 225 228 231 234 235 239 242 244 246 246 243 243 244 247 252 256 259 259 257 257 261 266 270 273 274 275 276 278 281 284 287 290 292 293 294 296 298 301 304 306 308 311 312 310 306 304 302 302 304 305 306 304 299 291 284 279 278 275 271 281 296 296 291 291 292 291 291 291 291
222 221 222 227 230 229 224 218 214 212 214 218 220 220 222 225 225 226 228 231 233 235 238 241 243 245 245 244 244 244 243 245 249 253 255 256 255 256 262 267 269 270 270 271 274 277 280 281 284 287 289 291 293 296 299 301 302 304 306 307 307 306 305 302 301 302 303 304 305 305 301 293 285 278 277 276 275 283 291 291 288 290 291 292 293 292 291
219 220 223 226 229 230 227 222 217 214 216 220 219 220 226 230 228 228 231 234 236 238 239 241 241 242 243 243 244 245 243 243 246 248 251 253 254 258 262 263 262 261 262 266 272 276 278 280 282 285 287 290 293 296 297 299 300 301 302 303 303 302 302 301 300 302 303 304 303 303 302 298 291 281 276 277 278 280 284 285 288 291 291 292 293 292 290
217 219 223 225 228 229 228 225 221 218 219 221 219 219 225 230 231 232 232 233 236 238 238 239 239 239 240 241 244 244 241 241 242 244 247 251 253 257 259 258 260 262 263 266 270 272 275 278 281 284 287 290 293 295 296 297 298 299 300 300 299 299 298 298 299 300 302 302 301 300 300 298 291 282 278 276 272 272 279 287 292 294 295 294 292 290 290
214 217 223 225 227 229 228 228 228 226 225 224 220 220 225 230 234 236 237 239 241 240 238 238 237 237 237 238 241 242 240 240 243 245 247 251 252 255 258 262 266 269 271 273 275 276 277 278 281 284 287 290 291 293 294 296 297 298 298 297 296 295 295 295 296 299 300 300 300 300 298 295 287 280 276 270 263 268 281 291 296 299 302 301 296 291 289
208 212 221 226 228 230 230 229 231 231 231 229 226 228 233 237 238 239 240 243 245 245 244 242 238 235 234 234 238 241 242 244 248 249 251 253 256 259 263 267 271 273 276 279 280 279 277 279 282 285 286 287 289 291 292 294 295 296 296 294 293 291 291 293 295 296 297 298 300 300 298 292 284 275 270 265 265 274 287 295 300 302 304 304 299 292 289
203 203 214 221 224 226 228 230 231 233 234 235 235 238 241 242 241 242 241 241 244 247 250 248 244 242 241 242 246 250 250 250 251 252 255 258 262 265 267 268 271 273 275 277 277 276 277 279 282 284 285 286 288 289 291 291 292 293 292 291 289 288 289 291 293 294 295 297 299 302 299 291 280 273 271 268 268 279 290 296 299 302 303 303 299 292 289
205 198 202 213 219 222 223 225 228 232 236 238 240 243 246 247 249 250 248 246 248 252 254 253 252 254 255 256 260 263 261 257 256 258 260 262 264 267 268 269 271 273 275 277 276 277 279 280 281 283 284 285 288 290 290 289 288 288 287 287 288 288 289 290 290 292 294 296 298 302 302 294 281 273 268 263 265 279 289 292 296 301 302 300 294 289 287
207 200 196 203 211 216 218 219 220 224 230 235 237 241 245 248 250 249 246 246 249 253 257 258 259 262 264 265 266 267 265 262 260 261 262 263 265 268 270 272 274 276 278 280 279 279 279 279 279 280 281 283 287 290 288 285 283 282 282 285 286 286 287 288 289 290 292 293 297 302 303 296 279 266 259 258 266 279 286 289 295 300 299 294 290 288 289
205 203 200 201 205 210 214 214 213 214 217 220 224 230 234 237 238 235 232 233 236 240 246 252 255 258 260 260 260 261 261 261 260 261 263 266 269 271 274 275 277 278 279 280 281 282 281 279 278 280 281 282 285 286 282 279 278 278 280 283 284 285 286 286 287 288 290 292 296 300 301 294 279 266 263 266 274 282 285 289 295 298 294 290 289 290 293
206 201 202 204 206 210 214 214 211 211 213 213 215 219 222 224 229 231 231 231 233 234 236 239 241 243 245 247 250 254 256 258 261 265 269 271 273 275 276 276 275 277 277 278 281 283 283 281 281 281 280 279 279 278 275 275 276 278 280 282 283 284 285 285 286 288 289 293 296 297 295 291 282 271 267 271 276 281 285 289 291 290 287 287 290 293 296
219 208 205 206 208 211 217 220 218 217 217 217 217 219 221 223 228 232 234 235 237 238 238 238 237 238 242 245 249 253 256 260 266 271 273 274 276 278 279 278 277 277 277 277 279 281 281 282 282 279 274 271 271 272 273 275 276 278 281 282 283 283 284 285 286 288 290 293 294 292 289 285 279 271 267 269 273 279 284 285 284 284 286 289 292 295 296
234 224 218 215 210 209 213 219 222 222 221 220 221 222 225 229 232 235 238 238 238 238 239 240 241 245 250 253 255 259 262 265 270 273 274 276 278 281 282 282 280 278 277 278 279 278 276 276 277 273 270 270 271 272 274 276 278 280 281 282 283 283 284 285 286 288 291 292 290 287 284 281 274 267 265 268 274 278 281 282 284 288 290 292 294 295 295
245 238 233 232 228 221 215 214 217 221 221 222 225 228 231 233 236 239 241 242 241 240 240 243 246 251 255 258 260 262 264 266 269 273 275 277 278 280 283 285 283 279 277 277 274 270 267 269 271 270 270 271 271 273 276 277 279 280 281 281 283 284 285 286 287 289 290 289 287 284 282 278 272 267 267 271 276 279 282 287 290 291 292 293 295 295 295
250 245 243 243 244 239 229 220 219 223 224 224 226 230 232 235 238 240 242 243 242 243 244 247 251 255 258 260 259 260 263 266 270 274 277 278 278 279 284 289 289 282 277 273 267 263 264 266 267 268 269 271 273 275 276 277 278 279 280 281 283 283 284 286 288 288 287 287 287 285 280 276 273 273 275 278 280 283 287 291 291 291 293 295 296 296 295
246 241 242 244 245 245 240 233 231 234 237 238 239 237 234 235 237 238 240 242 244 246 249 251 254 257 261 262 262 261 264 268 271 274 277 279 279 279 280 284 286 283 278 271 266 265 265 265 266 268 270 271 273 274 275 277 279 280 281 282 283 284 285 287 287 286 285 287 288 285 280 277 278 280 283 284 285 288 289 290 290 293 296 297 297 297 299
234 232 235 238 241 243 245 244 244 246 249 251 252 249 244 243 243 243 245 247 248 249 251 253 255 258 261 263 264 265 266 268 271 275 277 277 276 275 275 276 278 279 276 270 267 266 266 267 268 269 270 272 273 275 277 279 280 281 281 282 283 283 285 286 286 286 286 286 284 281 280 280 282 283 284 285 287 288 288 289 292 296 297 295 296 299 302
222 223 227 232 236 240 244 247 249 251 253 255 256 253 249 247 247 247 249 250 249 248 248 250 254 258 261 264 266 266 266 267 269 271 273 273 272 273 273 272 273 273 271 268 267 267 268 270 271 272 274 275 276 277 279 279 280 281 282 282 283 283 283 284 285 285 286 285 282 281 281 282 283 284 285 286 287 289 291 293 296 297 294 292 296 301 304
217 219 224 226 228 233 239 244 248 252 256 257 255 250 245 242 241 242 243 244 245 246 248 250 254 258 261 264 265 265 265 264 264 265 267 269 270 271 271 270 269 269 268 268 269 271 272 273 274 275 276 277 277 278 278 279 279 280 281 281 281 281 281 282 282 283 283 283 283 283 283 284 285 287 288 290 292 293 294 295 296 295 294 294 298 302 304
210 213 216 218 219 222 226 230 235 240 244 243 238 235 235 236 238 240 242 244 247 250 251 253 255 257 259 261 263 264 264 264 263 263 265 267 268 269 270 270 269 269 268 268 269 271 272 273 274 274 275 276 276 277 278 278 279 279 279 279 280 280 280 280 281 281 282 282 283 284 284 285 287 289 291 293 294 293 292 292 293 295 295 296 299 301 302
204 208 212 214 216 218 217 215 214 216 221 227 232 239 247 250 249 250 251 251 252 254 254 255 256 256 256 257 259 260 262 264 264 265 266 267 268 269 269 269 269 270 270 270 269 270 272 274 275 276 277 277 278 278 279 279 280 280 280 281 281 282 281 281 281 282 282 282 283 283 284 285 288 290 291 292 291 290 290 291 293 295 296 297 299 300 300
213 215 215 214 215 219 221 221 221 222 228 239 248 254 258 258 256 254 252 251 251 252 252 253 254 254 254 255 256 258 260 262 263 265 266 268 269 270 270 271 271 272 272 271 271 272 272 273 274 275 276 277 279 280 281 281 281 280 280 281 282 282 282 283 283 284 284 284 283 283 284 287 289 291 292 291 290 289 289 291 293 295 296 298 299 299 298
213 213 212 212 215 223 229 233 238 241 244 248 251 253 254 256 257 256 255 254 255 255 255 255 256 256 257 258 259 261 262 263 264 265 266 268 269 269 270 271 271 271 271 271 271 271 272 272 273 274 275 276 278 279 281 282 281 280 280 281 281 282 282 283 284 284 284 284 283 283 286 290 291 292 294 293 291 290 290 291 293 294 295 296 296 296 296
202 205 209 211 216 225 232 236 240 244 247 249 251 252 253 255 257 258 259 260 260 261 261 261 262 262 263 265 266 266 266 266 266 267 267 267 268 268 269 269 269 269 270 271 272 273 273 274 275 276 276 276 277 278 280 281 279 279 280 282 282 283 283 284 284 284 284 283 283 285 287 290 291 292 293 292 291 290 291 292 293 294 294 295 295 295 296
218 223 227 224 225 231 236 239 241 244 247 250 252 254 256 259 260 261 261 261 262 262 263 264 265 266 268 269 269 269 270 270 270 269 269 269 269 269 269 269 269 270 270 271 273 274 275 275 276 276 276 276 277 278 277 276 277 280 283 284 283 283 283 282 282 282 282 283 284 286 287 288 290 291 291 290 290 291 292 293 293 294 295 295 296 296 297
230 234 235 233 234 236 239 241 244 247 249 252 254 256 258 259 260 260 260 261 262 263 264 265 267 268 269 269 270 271 271 271 271 270 270 270 270 270 270 270 270 271 271 272 273 273 274 275 275 275 275 276 277 278 277 276 277 280 281 280 280 281 281 281 281 281 283 285 286 286 287 288 290 291 290 290 291 292 293 293 294 295 296 296 296 297 297
233 236 238 240 241 243 246 249 252 255 257 259 260 260 261 261 262 263 263 264 264 265 266 267 268 268 269 270 270 270 270 270 270 271 271 271 272 273 273 274 273 273 273 273 273 274 275 276 277 278 279 280 280 280 279 279 280 280 280 280 282 283 282 281 282 284 285 286 286 286 286 288 289 290 291 292 292 293 293 294 295 296 295 295 295 295 294
238 239 241 243 246 249 253 255 258 261 264 266 266 267 267 267 267 268 267 268 268 268 268 268 268 268 269 269 270 270 271 271 272 273 274 275 275 276 277 277 277 277 277 277 277 278 279 280 281 282 282 282 282 280 279 279 279 280 280 282 283 283 282 283 286 286 286 286 285 285 286 288 290 291 292 292 292 293 294 294 294 293 292 292 292 292 292
244 244 246 248 250 253 256 258 260 263 265 267 269 271 271 270 270 270 270 270 270 269 269 269 269 270 270 271 271 272 272 273 274 275 276 276 277 277 278 279 280 280 281 281 282 282 282 282 283 284 284 284 283 281 280 280 282 281 279 277 277 280 283 286 287 286 285 284 284 286 288 290 291 291 291 291 292 293 294 293 292 291 290 290 290 290 291
245 247 248 250 251 253 256 258 261 263 265 267 268 269 270 270 270 270 270 270 271 271 271 272 272 273 273 273 273 274 274 275 276 277 278 279 280 281 281 282 282 283 283 283 283 283 282 282 282 282 281 282 282 283 284 286 286 283 280 279 279 282 285 286 287 287 286 286 286 287 288 289 289 289 290 291 293 293 291 290 289 289 289 289 289 290 291
243 246 247 249 251 253 256 258 260 262 264 265 265 264 264 265 265 266 267 268 270 271 272 272 273 274 275 275 276 277 278 279 280 281 282 282 283 283 284 284 285 285 284 284 284 283 282 281 280 277 273 271 273 279 286 290 289 285 284 284 285 285 286 287 288 289 289 289 288 288 288 288 288 289 290 290 290 289 288 287 287 288 288 288 289 291 293
243 245 247 250 253 255 257 259 260 261 262 262 262 261 261 261 262 263 265 267 269 270 272 273 274 276 277 278 279 280 281 282 283 283 284 284 284 285 286 287 287 287 287 286 286 284 283 281 279 277 272 267 268 273 279 285 288 289 290 290 289 288 288 288 289 289 289 288 288 287 288 288 288 288 288 287 287 286 286 286 287 288 289 290 292 294 296
245 248 251 253 255 257 258 259 260 260 261 261 262 263 263 264 265 266 267 269 271 272 274 275 277 278 280 280 281 281 282 282 282 283 283 284 284 286 288 289 290 290 289 289 288 286 284 282 280 277 274 271 270 272 275 279 283 286 289 291 291 291 290 290 289 288 286 286 286 287 287 287 287 286 286 286 285 284 285 286 288 290 291 293 296 298 299
248 251 253 254 255 257 258 259 260 260 262 262 264 265 266 267 268 269 270 271 272 274 275 276 277 278 278 278 278 278 279 279 280 281 282 283 284 286 289 291 292 293 293 293 292 291 289 286 283 280 276 274 273 273 275 277 280 282 285 288 290 291 290 289 287 285 284 284 285 285 285 285 285 285 285 285 284 285 287 289 291 292 294 296 299 301 302
248 249 251 254 256 258 261 262 264 265 266 267 268 269 271 272 273 274 275 275 276 277 277 277 276 276 276 276 276 276 277 278 280 282 284 285 286 288 291 293 295 296 296 296 296 295 294 293 291 287 282 278 275 275 276 279 281 283 285 287 288 288 287 286 285 284 283 283 283 283 283 284 284 285 286 286 287 289 291 292 292 292 294 297 301 304 306
248 251 255 258 261 263 265 267 268 270 271 273 274 275 277 278 279 279 279 280 279 279 278 278 278 278 278 279 279 279 280 281 283 285 288 289 290 290 292 294 295 296 296 295 294 294 294 294 293 291 287 283 281 281 282 283 284 285 286 286 286 287 287 288 287 286 285 284 283 283 284 284 285 286 287 288 290 291 292 291 290 291 295 300 304 307 309
253 256 259 261 263 265 266 269 271 273 275 277 278 279 280 281 281 281 281 280 279 278 279 279 280 281 281 281 282 282 283 284 286 288 291 293 293 293 293 293 293 293 293 293 293 292 293 292 291 289 286 285 285 284 283 282 282 283 284 285 286 287 288 289 288 287 287 286 285 285 285 286 287 288 289 290 291 291 289 288 289 293 298 303 306 309 311
257 260 262 264 267 268 270 272 274 276 277 278 279 279 279 280 280 280 279 278 277 277 278 279 279 280 281 281 282 283 285 287 289 291 293 294 295 295 294 294 293 292 292 293 293 293 294 294 292 289 286 283 281 280 279 279 281 283 285 287 287 288 289 288 288 288 287 286 286 286 287 288 288 288 288 287 287 284 283 285 289 294 298 301 304 307 309
267 269 270 272 274 276 277 279 280 280 280 280 279 278 278 278 278 278 277 276 276 276 277 277 278 280 281 283 285 286 288 290 291 292 292 292 292 292 292 292 291 291 291 292 292 292 292 292 290 288 285 282 281 280 281 282 284 286 287 288 288 288 288 288 288 287 286 286 286 286 287 287 286 285 284 281 278 278 280 284 287 291 295 298 300 302 304
277 278 279 281 281 282 284 284 284 284 284 282 281 279 277 277 276 276 274 274 275 276 277 278 280 282 284 287 289 290 290 290 290 289 289 288 288 288 288 288 288 289 289 289 289 289 289 288 287 286 285 284 284 284 284 284 285 286 287 287 288 288 288 288 288 288 288 289 289 290 289 288 286 283 280 277 276 279 282 285 287 289 292 295 296 297 299
280 281 283 285 285 286 288 288 287 287 286 283 279 277 276 275 276 275 275 275 276 278 279 282 284 285 287 289 289 288 288 288 287 287 287 287 286 286 287 287 287 287 287 287 287 286 286 287 287 288 288 288 288 288 288 289 290 291 292 293 293 293 292 291 291 292 292 293 293 292 291 289 286 283 279 278 279 282 284 287 288 290 291 292 293 294 295
281 284 286 287 289 290 290 289 288 287 286 282 278 276 276 277 278 279 279 278 278 278 280 282 283 285 286 286 286 285 285 285 286 287 288 288 288 288 288 288 288 288 288 289 289 290 290 291 291 291 292 292 292 292 293 294 294 295 295 295 294 294 293 293 293 293 293 293 293 292 290 288 286 283 281 280 281 283 285 287 287 288 289 289 290 291 291
285 286 287 288 289 289 289 286 284 283 282 280 278 277 278 279 280 280 280 279 279 279 280 281 282 283 283 283 283 284 284 285 286 287 289 290 291 291 290 290 290 290 290 290 291 291 291 291 291 290 290 290 290 291 291 292 292 292 292 292 292 292 292 292 292 293 293 293 292 291 290 288 286 285 284 283 283 284 285 285 285 286 286 287 288 288 288
285 285 285 285 285 284 282 280 279 277 276 276 275 275 276 277 278 278 279 280 281 282 283 283 283 283 282 282 282 283 283 284 285 287 289 290 291 291 291 292 292 292 291 292 292 291 291 291 291 291 291 291 292 292 293 293 293 294 293 294 294 293 293 293 293 293 293 292 291 290 288 287 286 285 284 284 283 283 284 284 284 285 284 285 285 286 287
Height
5786 5791 5796 5800 5802 5804 5807 5811 5815 5819 5821 5823 5825 5827 5830 5833 5833 5835 5841 5843 5843 5847 5851 5854 5858 5860 5861 5863 5864 5865 5866 5867 5868 5868 5868 5869 5869 5870 5870 5871 5871 5871 5871 5872 5872 5872 5872 5872 5872 5871 5871 5871 5870 5869 5869 5867 5867 5866 5865 5864 5863 5860 5856 5851 5845 5842 5843 5847 5852 5852 5849 5848 5848 5847 5847 5846 5845 5845 5845 5844 5843 5842 5841 5840 5840 5840 5839
5781 5785 5790 5794 5797 5799 5802 5806 5810 5814 5817 5819 5821 5824 5827 5829 5830 5834 5838 5838 5839 5844 5848 5851 5855 5857 5858 5860 5860 5861 5862 5864 5865 5865 5865 5866 5866 5867 5867 5867 5867 5868 5868 5868 5868 5868 5868 5868 5868 5868 5868 5868 5867 5866 5865 5864 5863 5862 5861 5861 5858 5855 5851 5847 5844 5844 5845 5847 5849 5848 5846 5844 5842 5842 5842 5840 5840 5841 5840 5839 5839 5839 5837 5836 5836 5835 5834
5777 5780 5785 5788 5791 5794 5797 5800 5805 5809 5812 5814 5816 5819 5822 5824 5826 5830 5832 5833 5835 5840 5845 5848 5850 5852 5853 5855 5857 5858 5859 5861 5861 5862 5863 5863 5863 5864 5864 5864 5864 5864 5865 5865 5865 5865 5864 5865 5865 5864 5864 5864 5864 5863 5862 5861 5860 5858 5858 5856 5853 5850 5848 5848 5848 5847 5845 5845 5844 5841 5839 5838 5837 5837 5836 5836 5836 5836 5836 5835 5835 5834 5833 5832 5831 5830 5829
5772 5776 5780 5783 5787 5789 5790 5793 5798 5803 5806 5809 5812 5815 5818 5820 5823 5826 5827 5827 5831 5838 5841 5843 5845 5847 5849 5851 5853 5855 5856 5857 5858 5859 5860 5860 5860 5860 5860 5860 5860 5861 5861 5861 5861 5860 5860 5860 5861 5860 5860 5860 5860 5859 5858 5857 5856 5854 5853 5850 5848 5847 5846 5846 5845 5842 5840 5840 5837 5834 5833 5833 5833 5832 5831 5832 5832 5832 5832 5831 5830 5829 5828 5827 5826 5825 5824
5768 5773 5776 5779 5782 5782 5780 5785 5793 5798 5801 5805 5808 5811 5814 5817 5819 5821 5821 5824 5830 5835 5837 5839 5841 5843 5845 5847 5849 5851 5853 5854 5854 5856 5857 5857 5857 5857 5856 5856 5856 5857 5857 5857 5857 5856 5856 5856 5856 5857 5857 5857 5856 5855 5854 5853 5852 5850 5848 5846 5845 5844 5842 5840 5839 5836 5834 5833 5832 5832 5831 5830 5828 5827 5826 5827 5828 5828 5827 5827 5826 5825 5823 5822 5821 5820 5820
5765 5770 5773 5775 5774 5772 5775 5784 5790 5793 5796 5801 5804 5807 5810 5813 5815 5816 5819 5823 5827 5830 5832 5834 5837 5839 5842 5843 5845 5847 5849 5850 5851 5852 5853 5853 5853 5853 5853 5853 5853 5853 5854 5853 5853 5852 5852 5852 5852 5853 5853 5853 5853 5851 5850 5849 5847 5845 5844 5842 5841 5840 5837 5836 5833 5831 5830 5829 5828 5828 5827 5825 5824 5823 5822 5822 5822 5822 5822 5822 5821 5820 5818 5817 5817 5816 5815
5762 5767 5769 5769 5767 5769 5776 5783 5786 5788 5793 5798 5801 5803 5806 5808 5811 5813 5817 5820 5823 5825 5828 5831 5833 5836 5838 5839 5841 5843 5845 5846 5847 5848 5848 5849 5849 5849 5849 5849 5850 5850 5850 5849 5848 5848 5848 5848 5848 5849 5849 5849 5848 5847 5846 5844 5843 5841 5840 5839 5837 5835 5833 5832 5829 5826 5825 5824 5822 5822 5821 5820 5819 5818 5817 5817 5816 5816 5818 5818 5816 5814 5813 5812 5811 5811 5810
5760 5764 5765 5764 5765 5770 5775 5778 5781 5785 5790 5793 5796 5798 5801 5804 5807 5810 5814 5816 5819 5821 5824 5826 5829 5831 5833 5835 5837 5838 5840 5842 5842 5843 5844 5845 5845 5845 5845 5845 5845 5845 5845 5844 5844 5844 5844 5844 5844 5844 5844 5843 5843 5842 5841 5839 5838 5836 5835 5834 5832 5830 5828 5827 5825 5822 5820 5819 5817 5815 5814 5814 5813 5812 5812 5811 5810 5811 5812 5812 5810 5809 5808 5807 5806 5806 5805
5757 5760 5762 5762 5765 5769 5771 5773 5778 5782 5786 5789 5792 5795 5798 5801 5804 5807 5810 5813 5815 5818 5820 5822 5825 5827 5828 5830 5832 5834 5835 5837 5837 5838 5840 5840 5840 5841 5840 5840 5840 5840 5840 5839 5839 5839 5839 5839 5839 5839 5838 5838 5837 5836 5835 5834 5832 5831 5830 5829 5828 5825 5823 5822 5821 5818 5816 5814 5812 5809 5807 5807 5806 5806 5807 5806 5805 5806 5807 5806 5805 5804 5803 5802 5801 5801 5800
5754 5757 5758 5760 5763 5765 5768 5772 5776 5780 5784 5787 5789 5792 5795 5797 5800 5803 5806 5809 5811 5814 5816 5818 5821 5822 5824 5826 5828 5829 5831 5831 5833 5834 5835 5835 5835 5835 5835 5835 5835 5834 5834 5834 5834 5834 5834 5834 5834 5834 5833 5833 5832 5831 5830 5829 5828 5826 5826 5825 5823 5820 5818 5817 5816 5814 5812 5811 5810 5807 5804 5802 5802 5802 5802 5802 5801 5803 5803 5802 5800 5799 5798 5797 5796 5796 5796
5749 5753 5755 5757 5760 5764 5767 5770 5774 5778 5781 5783 5786 5790 5791 5793 5796 5799 5801 5804 5806 5809 5812 5814 5816 5818 5819 5822 5823 5825 5826 5827 5828 5829 5829 5829 5829 5829 5829 5829 5828 5828 5828 5828 5828 5829 5828 5828 5828 5828 5828 5827 5826 5826 5825 5824 5823 5822 5821 5819 5818 5816 5814 5812 5810 5809 5808 5807 5806 5805 5802 5799 5797 5797 5797 5797 5798 5799 5799 5798 5796 5795 5793 5792 5791 5791 5790
5746 5749 5752 5755 5758 5761 5765 5768 5771 5775 5777 5779 5783 5786 5787 5790 5793 5795 5798 5800 5802 5805 5808 5809 5811 5813 5815 5817 5819 5820 5821 5822 5822 5823 5824 5824 5824 5823 5822 5821 5821 5822 5823 5823 5823 5823 5823 5822 5822 5822 5822 5821 5820 5820 5819 5818 5817 5816 5815 5813 5812 5810 5809 5807 5805 5804 5804 5802 5801 5800 5799 5796 5795 5794 5793 5792 5793 5794 5794 5793 5792 5790 5788 5787 5786 5785 5784
5743 5746 5749 5752 5756 5759 5762 5766 5768 5770 5772 5775 5779 5783 5785 5788 5791 5793 5796 5798 5800 5802 5804 5805 5807 5809 5811 5813 5814 5815 5816 5817 5817 5818 5819 5819 5818 5818 5817 5817 5817 5818 5819 5819 5818 5818 5818 5817 5817 5817 5816 5816 5815 5814 5813 5812 5811 5810 5809 5807 5805 5805 5804 5803 5800 5799 5799 5798 5796 5795 5794 5793 5792 5791 5790 5789 5789 5789 5789 5788 5786 5785 5784 5783 5782 5780 5779
5740 5743 5746 5750 5754 5756 5759 5762 5764 5766 5769 5772 5777 5781 5783 5785 5787 5790 5793 5795 5796 5799 5800 5801 5804 5805 5806 5808 5809 5810 5811 5812 5812 5813 5813 5814 5814 5813 5813 5813 5813 5814 5814 5814 5813 5812 5812 5812 5811 5811 5811 5810 5810 5809 5808 5807 5805 5804 5803 5801 5800 5799 5798 5797 5796 5794 5794 5793 5792 5789 5788 5786 5786 5786 5786 5786 5786 5785 5784 5782 5781 5781 5780 5779 5777 5776 5774
5737 5740 5743 5747 5750 5752 5756 5758 5760 5763 5766 5770 5774 5777 5779 5781 5783 5785 5788 5790 5793 5795 5796 5798 5800 5801 5803 5805 5806 5806 5808 5808 5808 5808 5809 5809 5809 5809 5809 5809 5809 5809 5809 5809 5808 5807 5806 5806 5805 5805 5805 5805 5805 5804 5803 5802 5800 5799 5797 5796 5795 5794 5793 5793 5791 5790 5788 5788 5787 5785 5782 5781 5781 5781 5781 5782 5782 5780 5779 5778 5778 5777 5776 5774 5772 5770 5769
5733 5735 5739 5744 5747 5749 5752 5754 5756 5759 5763 5766 5770 5772 5773 5775 5778 5781 5783 5786 5788 5791 5792 5794 5796 5797 5799 5801 5801 5802 5803 5803 5803 5804 5804 5804 5805 5805 5804 5804 5804 5804 5804 5803 5802 5801 5800 5800 5800 5799 5799 5799 5799 5798 5797 5796 5795 5793 5792 5791 5790 5789 5789 5788 5787 5785 5784 5783 5782 5780 5778 5777 5776 5776 5776 5776 5776 5775 5774 5774 5774 5772 5770 5769 5767 5765 5764
5729 5731 5733 5738 5742 5744 5746 5749 5751 5754 5758 5761 5764 5767 5768 5770 5773 5776 5778 5781 5783 5786 5787 5789 5791 5792 5794 5795 5795 5796 5797 5797 5797 5798 5798 5799 5799 5799 5799 5799 5799 5799 5798 5797 5796 5795 5795 5794 5794 5793 5793 5793 5792 5792 5791 5790 5789 5788 5787 5786 5785 5784 5783 5783 5782 5781 5780 5779 5778 5776 5775 5773 5772 5772 5771 5771 5771 5770 5770 5770 5769 5767 5765 5763 5762 5760 5759
5725 5728 5729 5733 5736 5740 5742 5743 5744 5747 5751 5755 5758 5761 5764 5766 5768 5770 5773 5775 5777 5780 5782 5784 5786 5787 5788 5788 5789 5790 5791 5791 5792 5793 5794 5794 5794 5794 5794 5794 5793 5793 5792 5791 5790 5789 5789 5788 5788 5787 5786 5786 5786 5785 5784 5784 5783 5782 5782 5781 5780 5779 5778 5778 5777 5776 5775 5774 5773 5772 5771 5770 5769 5768 5767 5767 5766 5766 5765 5764 5763 5761 5759 5757 5756 5755 5754
5721 5724 5727 5730 5733 5736 5739 5740 5741 5743 5747 5750 5754 5757 5759 5761 5763 5765 5767 5769 5772 5774 5776 5778 5779 5780 5781 5782 5783 5784 5785 5786 5787 5789 5789 5789 5790 5790 5789 5788 5788 5787 5786 5785 5784 5783 5782 5782 5781 5780 5779 5779 5779 5779 5779 5779 5778 5778 5777 5776 5775 5774 5774 5773 5772 5771 5770 5769 5768 5767 5766 5765 5764 5764 5763 5762 5761 5761 5760 5759 5757 5756 5754 5752 5751 5750 5748
5718 5721 5723 5726 5728 5731 5734 5737 5739 5741 5744 5748 5751 5753 5755 5757 5759 5761 5763 5765 5768 5769 5770 5772 5773 5774 5775 5776 5777 5779 5780 5781 5782 5783 5784 5784 5784 5784 5783 5782 5781 5780 5780 5779 5778 5777 5776 5776 5775 5773 5773 5773 5774 5773 5774 5774 5773 5773 5772 5771 5770 5770 5769 5768 5767 5766 5765 5764 5763 5761 5760 5759 5758 5758 5757 5757 5756 5755 5754 5753 5752 5751 5749 5747 5746 5744 5742
5714 5717 5719 5722 5724 5727 5730 5733 5736 5739 5742 5745 5748 5750 5752 5753 5755 5757 5759 5761 5763 5764 5765 5767 5768 5769 5770 5772 5773 5774 5775 5776 5777 5778 5778 5778 5778 5777 5776 5775 5774 5773 5773 5772 5772 5771 5770 5770 5769 5769 5769 5769 5769 5769 5769 5769 5768 5768 5767 5766 5765 5764 5763 5762 5761 5760 5759 5758 5757 5755 5753 5753 5752 5751 5750 5750 5750 5750 5749 5748 5747 5745 5744 5742 5739 5737 5735
5709 5712 5715 5718 5720 5723 5726 5729 5732 5735 5738 5741 5744 5746 5748 5750 5751 5753 5754 5756 5758 5760 5761 5762 5763 5764 5765 5766 5767 5768 5770 5771 5771 5772 5772 5772 5772 5772 5771 5769 5768 5767 5766 5765 5765 5765 5765 5765 5765 5764 5764 5764 5764 5764 5764 5764 5763 5762 5761 5761 5760 5758 5757 5755 5755 5754 5753 5752 5749 5748 5747 5747 5746 5746 5746 5746 5746 5745 5744 5743 5741 5739 5737 5735 5732 5730 5728
5705 5707 5710 5713 5716 5719 5722 5724 5727 5729 5733 5737 5739 5742 5744 5745 5747 5748 5750 5751 5753 5755 5757 5758 5759 5760 5761 5762 5763 5764 5765 5765 5766 5766 5766 5766 5766 5766 5765 5764 5762 5761 5760 5760 5759 5759 5759 5759 5759 5759 5759 5759 5759 5759 5758 5758 5758 5757 5756 5756 5755 5753 5751 5749 5749 5748 5747 5746 5744 5742 5742 5743 5743 5743 5743 5742 5741 5739 5738 5736 5734 5732 5730 5727 5725 5724 5722
5701 5703 5705 5708 5711 5715 5718 5721 5723 5725 5729 5732 5735 5737 5738 5740 5741 5743 5745 5746 5748 5750 5752 5753 5754 5755 5756 5757 5757 5758 5759 5759 5759 5760 5760 5760 5760 5759 5759 5758 5758 5757 5757 5756 5755 5755 5754 5754 5754 5754 5754 5753 5753 5753 5752 5752 5752 5752 5751 5750 5749 5747 5745 5743 5742 5742 5742 5741 5740 5739 5739 5739 5738 5738 5737 5735 5734 5732 5731 5728 5726 5724 5722 5721 5719 5717 5716
5698 5700 5701 5703 5706 5709 5712 5715 5719 5721 5724 5727 5729 5731 5733 5734 5735 5737 5739 5741 5743 5745 5747 5748 5748 5749 5750 5751 5752 5753 5753 5753 5753 5753 5753 5754 5754 5754 5753 5753 5752 5753 5752 5751 5751 5750 5749 5749 5749 5749 5748 5748 5748 5747 5747 5747 5747 5746 5745 5745 5744 5742 5740 5739 5737 5736 5736 5736 5735 5735 5734 5733 5732 5731 5730 5729 5727 5726 5723 5721 5719 5717 5716 5714 5713 5711 5710
5696 5698 5698 5699 5702 5704 5706 5709 5713 5715 5718 5720 5721 5723 5725 5727 5728 5730 5733 5735 5737 5739 5741 5742 5742 5743 5744 5746 5746 5747 5748 5748 5748 5748 5748 5748 5748 5748 5747 5747 5747 5747 5747 5746 5746 5745 5744 5744 5744 5743 5743 5742 5742 5741 5741 5741 5741 5740 5739 5738 5738 5737 5736 5734 5732 5730 5729 5729 5729 5728 5727 5726 5726 5725 5724 5723 5721 5719 5716 5714 5712 5711 5710 5708 5707 5705 5703
5693 5696 5697 5697 5698 5700 5702 5704 5707 5710 5712 5713 5714 5716 5719 5721 5723 5725 5727 5729 5732 5734 5735 5737 5737 5738 5740 5741 5742 5742 5743 5743 5743 5743 5743 5742 5742 5741 5741 5741 5741 5741 5741 5741 5740 5739 5739 5739 5738 5738 5737 5736 5736 5735 5735 5735 5734 5734 5733 5732 5731 5730 5729 5728 5727 5725 5724 5723 5722 5721 5720 5719 5718 5718 5716 5715 5713 5711 5709 5707 5706 5705 5703 5702 5700 5698 5696
5690 5693 5696 5696 5696 5697 5699 5701 5704 5706 5709 5710 5712 5713 5715 5718 5719 5721 5722 5724 5726 5729 5731 5732 5733 5734 5735 5736 5736 5737 5737 5737 5737 5736 5736 5735 5735 5735 5735 5735 5735 5735 5735 5735 5735 5734 5733 5733 5732 5732 5731 5730 5730 5729 5729 5728 5728 5727 5726 5725 5725 5724 5723 5722 5721 5720 5718 5717 5716 5714 5713 5712 5711 5710 5709 5707 5705 5704 5702 5701 5700 5698 5697 5695 5694 5692 5689
5687 5690 5692 5693 5695 5696 5697 5698 5700 5702 5704 5708 5710 5711 5712 5713 5715 5717 5719 5720 5722 5724 5725 5726 5727 5728 5729 5730 5730 5730 5730 5730 5730 5730 5729 5729 5729 5729 5730 5730 5730 5730 5730 5730 5729 5729 5728 5727 5726 5725 5724 5724 5723 5722 5722 5721 5720 5720 5719 5718 5717 5717 5716 5715 5714 5713 5712 5711 5709 5708 5707 5706 5705 5703 5702 5701 5699 5697 5696 5695 5694 5692 5690 5688 5687 5685 5683
5684 5686 5687 5689 5691 5693 5694 5695 5697 5699 5701 5704 5706 5707 5708 5709 5711 5713 5715 5717 5718 5719 5720 5720 5721 5722 5722 5723 5724 5724 5724 5724 5724 5724 5724 5724 5724 5724 5725 5725 5724 5724 5724 5724 5724 5724 5723 5722 5721 5719 5718 5717 5716 5715 5714 5714 5713 5712 5711 5711 5710 5709 5709 5708 5707 5706 5705 5704 5703 5702 5701 5700 5699 5697 5696 5694 5693 5692 5690 5689 5688 5686 5683 5682 5680 5679 5676
5681 5683 5684 5685 5687 5690 5692 5693 5695 5697 5699 5701 5702 5704 5705 5706 5708 5710 5711 5712 5713 5714 5715 5715 5716 5716 5717 5718 5718 5719 5719 5719 5719 5719 5719 5719 5719 5719 5719 5719 5719 5718 5718 5718 5718 5718 5717 5716 5715 5714 5713 5712 5710 5709 5708 5707 5706 5705 5704 5704 5703 5702 5702 5701 5700 5699 5698 5697 5696 5695 5694 5693 5692 5690 5689 5688 5687 5686 5684 5683 5681 5679 5677 5676 5674 5672 5670
5678 5680 5681 5683 5685 5687 5689 5691 5693 5695 5696 5698 5700 5701 5702 5703 5705 5706 5707 5708 5709 5709 5709 5710 5710 5711 5711 5712 5712 5713 5714 5714 5714 5714 5714 5713 5713 5713 5713 5713 5713 5712 5712 5711 5711 5711 5710 5709 5708 5707 5707 5706 5704 5704 5703 5702 5700 5698 5698 5698 5697 5696 5694 5693 5693 5692 5691 5690 5689 5688 5687 5686 5685 5684 5683 5682 5681 5680 5678 5676 5675 5673 5671 5670 5668 5666 5664
5677 5678 5679 5681 5683 5685 5687 5690 5692 5693 5695 5696 5697 5699 5700 5701 5702 5703 5703 5704 5704 5704 5704 5705 5705 5705 5706 5706 5707 5707 5708 5708 5708 5708 5708 5708 5707 5707 5707 5707 5707 5706 5706 5705 5704 5703 5703 5702 5701 5701 5700 5699 5698 5698 5698 5696 5694 5693 5693 5691 5690 5689 5687 5686 5685 5685 5684 5683 5682 5682 5681 5680 5679 5678 5677 5676 5675 5673 5672 5670 5668 5667 5665 5663 5662 5660 5658
5676 5677 5678 5680 5682 5684 5686 5688 5690 5691 5693 5694 5695 5696 5697 5698 5698 5699 5699 5699 5700 5700 5700 5700 5700 5700 5700 5701 5701 5701 5702 5702 5702 5702 5702 5701 5701 5701 5701 5701 5700 5700 5700 5699 5697 5696 5695 5695 5694 5694 5693 5693 5692 5692 5692 5690 5689 5689 5687 5685 5683 5682 5681 5680 5679 5678 5678 5677 5676 5675 5675 5674 5673 5672 5671 5670 5668 5667 5665 5664 5662 5661 5659 5657 5656 5654 5653
5674 5675 5677 5678 5680 5681 5683 5684 5686 5687 5689 5690 5691 5692 5693 5693 5694 5694 5694 5695 5695 5695 5695 5695 5695 5695 5695 5695 5695 5696 5696 5696 5696 5696 5695 5695 5695 5695 5694 5694 5694 5693 5692 5691 5690 5689 5688 5688 5687 5687 5686 5686 5685 5684 5683 5682 5682 5682 5681 5679 5677 5675 5675 5674 5673 5672 5671 5671 5670 5669 5668 5668 5667 5666 5665 5663 5662 5660 5659 5658 5656 5655 5653 5652 5651 5649 5648
5672 5673 5675 5676 5677 5678 5679 5681 5682 5683 5684 5685 5686 5687 5688 5688 5689 5689 5689 5690 5690 5690 5690 5690 5690 5690 5690 5691 5691 5690 5690 5690 5690 5689 5689 5689 5688 5688 5687 5687 5686 5686 5685 5683 5683 5682 5682 5681 5680 5679 5679 5678 5677 5676 5675 5674 5674 5675 5675 5675 5672 5669 5668 5667 5667 5666 5665 5664 5664 5663 5662 5661 5660 5659 5658 5657 5656 5654 5653 5652 5651 5650 5649 5647 5646 5645 5643
5670 5671 5673 5674 5675 5676 5677 5678 5678 5679 5680 5681 5682 5682 5683 5683 5684 5684 5684 5685 5685 5685 5685 5685 5685 5685 5686 5685 5685 5685 5684 5684 5684 5684 5683 5682 5682 5681 5681 5680 5679 5678 5677 5676 5675 5675 5675 5674 5673 5672 5671 5669 5668 5667 5667 5667 5666 5667 5668 5668 5666 5664 5662 5661 5660 5659 5658 5658 5657 5657 5656 5655 5654 5653 5652 5651 5650 5649 5648 5647 5646 5645 5644 5643 5642 5640 5639
5668 5669 5671 5672 5673 5674 5674 5675 5676 5676 5677 5678 5679 5679 5679 5679 5680 5680 5680 5680 5680 5680 5680 5680 5680 5680 5680 5680 5679 5679 5679 5679 5678 5678 5677 5676 5676 5675 5674 5673 5672 5671 5670 5669 5668 5668 5667 5666 5666 5666 5665 5662 5660 5660 5660 5660 5660 5660 5660 5660 5660 5658 5657 5656 5655 5653 5653 5652 5651 5651 5650 5650 5649 5648 5647 5646 5645 5645 5644 5643 5642 5641 5640 5639 5637 5635 5634
5665 5666 5668 5669 5670 5670 5671 5672 5672 5673 5674 5674 5675 5675 5675 5676 5676 5676 5676 5676 5676 5676 5676 5676 5676 5675 5675 5674 5674 5674 5673 5673 5673 5672 5671 5670 5669 5668 5667 5666 5665 5663 5662 5661 5660 5660 5659 5658 5659 5660 5660 5657 5655 5654 5654 5654 5654 5654 5654 5654 5653 5652 5651 5650 5649 5648 5647 5646 5646 5646 5646 5645 5644 5644 5643 5642 5641 5640 5639 5639 5638 5637 5635 5634 5632 5631 5629
5662 5663 5664 5665 5666 5667 5667 5668 5668 5669 5670 5670 5671 5671 5671 5672 5672 5672 5672 5672 5672 5671 5671 5671 5671 5670 5669 5669 5668 5668 5667 5667 5666 5665 5665 5664 5663 5662 5660 5659 5658 5656 5655 5655 5653 5652 5652 5651 5651 5651 5652 5652 5650 5650 5649 5650 5650 5649 5649 5648 5647 5646 5645 5644 5643 5642 5642 5641 5641 5641 5641 5640 5640 5639 5638 5637 5636 5636 5635 5634 5633 5632 5631 5629 5627 5626 5625
5659 5660 5661 5662 5662 5663 5663 5664 5664 5665 5665 5666 5666 5666 5667 5667 5667 5667 5667 5667 5667 5666 5666 5666 5666 5665 5664 5664 5663 5662 5662 5661 5660 5660 5659 5658 5657 5656 5655 5654 5652 5651 5650 5649 5648 5646 5645 5645 5645 5645 5645 5646 5646 5645 5645 5645 5645 5645 5644 5643 5641 5640 5639 5638 5637 5637 5637 5637 5637 5637 5636 5636 5635 5634 5634 5633 5632 5631 5631 5630 5628 5627 5626 5624 5623 5622 5621
5657 5658 5658 5659 5659 5660 5660 5660 5661 5661 5661 5662 5662 5662 5662 5662 5662 5663 5663 5662 5662 5662 5662 5661 5661 5660 5659 5659 5658 5658 5657 5656 5656 5655 5654 5653 5652 5651 5650 5649 5647 5646 5645 5644 5643 5642 5641 5640 5640 5640 5640 5640 5640 5640 5640 5640 5640 5640 5639 5637 5636 5635 5634 5634 5633 5633 5633 5632 5632 5632 5632 5631 5631 5630 5629 5629 5628 5627 5626 5625 5624 5623 5621 5620 5619 5618 5617
5655 5655 5656 5656 5656 5657 5657 5657 5657 5658 5658 5658 5658 5659 5659 5659 5658 5658 5658 5658 5658 5657 5657 5656 5656 5655 5654 5654 5654 5653 5652 5652 5651 5650 5650 5649 5647 5647 5646 5644 5643 5641 5640 5639 5639 5638 5637 5637 5636 5636 5636 5636 5635 5635 5635 5635 5635 5634 5633 5632 5632 5631 5630 5629 5629 5628 5628 5628 5628 5627 5627 5627 5626 5626 5625 5624 5623 5622 5621 5621 5619 5619 5618 5617 5616 5615 5613
5652 5653 5653 5653 5654 5654 5654 5655 5655 5655 5655 5655 5655 5655 5655 5655 5654 5654 5653 5653 5652 5652 5652 5651 5651 5650 5649 5649 5648 5648 5647 5647 5646 5645 5645 5644 5643 5642 5641 5640 5639 5637 5637 5636 5635 5635 5634 5633 5633 5633 5632 5632 5631 5631 5631 5631 5630 5630 5629 5629 5628 5627 5626 5625 5625 5624 5624 5624 5623 5623 5623 5622 5622 5621 5620 5619 5618 5617 5617 5616 5615 5615 5614 5613 5612 5611 5610
5650 5650 5651 5651 5651 5652 5652 5652 5652 5652 5652 5652 5651 5651 5651 5650 5650 5649 5649 5648 5648 5647 5647 5646 5646 5645 5645 5644 5643 5643 5642 5642 5641 5641 5640 5639 5638 5637 5637 5636 5635 5634 5634 5633 5632 5632 5631 5630 5630 5629 5629 5628 5627 5627 5627 5627 5627 5626 5626 5625 5624 5623 5622 5622 5621 5620 5620 5619 5619 5619 5618 5618 5617 5616 5615 5614 5614 5613 5613 5612 5611 5611 5610 5609 5608 5607 5606
5648 5648 5648 5648 5649 5649 5649 5649 5649 5649 5648 5648 5648 5647 5647 5646 5646 5645 5645 5644 5644 5643 5643 5643 5642 5641 5641 5640 5640 5639 5638 5638 5637 5637 5636 5635 5634 5634 5633 5633 5632 5631 5631 5630 5629 5629 5628 5627 5626 5626 5625 5624 5624 5624 5624 5623 5623 5622 5621 5621 5620 5619 5618 5618 5617 5616 5616 5615 5615 5614 5614 5613 5612 5612 5611 5610 5610 5610 5609 5609 5608 5607 5606 5605 5605 5603 5602
5645 5645 5645 5646 5646 5646 5646 5645 5645 5645 5645 5644 5644 5643 5643 5642 5642 5642 5641 5641 5640 5640 5639 5639 5638 5638 5637 5637 5636 5635 5634 5634 5633 5633 5632 5632 5631 5630 5630 5629 5628 5628 5627 5627 5626 5625 5624 5624 5623 5622 5622 5621 5621 5620 5620 5619 5619 5618 5618 5617 5616 5615 5614 5614 5613 5612 5612 5611 5611 5610 5610 5609 5608 5607 5607 5607 5606 5606 5606 5606 5605 5604 5603 5602 5601 5600 5599
5642 5642 5642 5642 5642 5642 5642 5641 5641 5641 5640 5640 5640 5639 5639 5639 5638 5638 5638 5637 5637 5636 5635 5635 5634 5634 5633 5632 5632 5631 5631 5630 5629 5629 5629 5628 5627 5627 5626 5626 5625 5624 5623 5623 5622 5621 5621 5620 5620 5619 5619 5618 5617 5617 5616 5616 5615 5614 5614 5613 5612 5611 5611 5610 5609 5609 5608 5607 5607 5606 5605 5605 5604 5604 5603 5603 5603 5603 5603 5602 5601 5600 5599 5599 5598 5597 5596
5638 5639 5639 5638 5638 5638 5637 5637 5637 5636 5636 5636 5636 5635 5635 5635 5634 5634 5634 5633 5633 5632 5632 5631 5630 5630 5629 5629 5628 5628 5627 5627 5626 5625 5625 5625 5624 5623 5622 5621 5621 5620 5619 5619 5618 5617 5617 5617 5616 5615 5615 5614 5613 5613 5612 5611 5611 5610 5609 5609 5608 5607 5607 5606 5605 5604 5604 5603 5603 5602 5601 5601 5600 5600 5600 5599 5599 5599 5598 5598 5597 5596 5595 5594 5594 5593 5592
5635 5635 5635 5635 5634 5634 5634 5633 5633 5632 5632 5632 5632 5631 5631 5631 5630 5630 5630 5630 5629 5629 5628 5628 5627 5626 5626 5625 5625 5625 5624 5623 5623 5622 5621 5621 5620 5619 5619 5618 5617 5616 5616 5615 5614 5614 5613 5612 5612 5611 5611 5610 5609 5609 5608 5607 5607 5606 5605 5605 5604 5604 5603 5602 5601 5601 5600 5599 5599 5598 5597 5597 5596 5596 5596 5595 5595 5594 5594 5594 5593 5592 5591 5590 5589 5589 5588
5632 5632 5631 5631 5631 5630 5630 5629 5629 5629 5629 5628 5628 5628 5628 5628 5627 5627 5627 5627 5626 5626 5625 5625 5624 5623 5623 5622 5622 5621 5620 5620 5619 5618 5618 5617 5616 5616 5615 5614 5614 5613 5612 5612 5611 5610 5610 5609 5608 5608 5607 5606 5606 5605 5604 5604 5603 5603 5602 5601 5601 5600 5599 5598 5598 5597 5596 5596 5595 5594 5594 5593 5593 5592 5592 5591 5590 5590 5590 5589 5588 5588 5587 5585 5584 5584 5583
5629 5628 5628 5628 5627 5627 5627 5627 5626 5626 5626 5626 5626 5625 5625 5625 5625 5624 5624 5623 5623 5622 5622 5621 5620 5620 5619 5619 5618 5617 5617 5616 5615 5615 5614 5614 5613 5612 5612 5611 5610 5610 5609 5608 5607 5607 5606 5605 5604 5604 5603 5602 5601 5601 5600 5599 5599 5598 5597 5597 5596 5595 5595 5594 5593 5592 5592 5591 5591 5590 5590 5589 5588 5588 5587 5586 5585 5585 5584 5584 5583 5582 5582 5581 5580 5579 5578